Regional Weather Roundup
Issued by NWS

Home | Current Version | Previous Version | Graphics & Text | Print | Product List | Glossary On
Versions: 1 2 3 4 5 6 7 8 9 10 11 12 13 14 15 16 17 18 19 20 21 22 23 24 25 26 27 28 29 30 31 32 33 34 35 36 37 38 39 40 41 42 43 44 45 46 47 48 49 50
000
ASUS43 KFSD 200610
RWRSD

WEATHER ROUNDUP FOR SOUTH DAKOTA
NATIONAL WEATHER SERVICE SIOUX FALLS SD
100 AM CDT MON OCT 20 2014

NOTE: "FAIR" INDICATES FEW OR NO CLOUDS BELOW 12,000 FEET WITH NO
SIGNIFICANT WEATHER AND/OR OBSTRUCTIONS TO VISIBILITY.


SDZ001>005-009-010-012>017-200700-
NORTHWEST AND NORTH CENTRAL SOUTH DAKOTA

CITY           SKY/WX    TMP DP  RH WIND       PRES   REMARKS
BUFFALO          N/A     51  35  54 S7        29.99F
FAITH            N/A     55  37  50 SE9       30.06S
MOBRIDGE       CLEAR     42  37  82 N3        30.02S
$$

SDZ012>016-024>037-041>051-057-063-072>074-200700-
SOUTHWEST AND SOUTH CENTRAL SOUTH DAKOTA

CITY           SKY/WX    TMP DP  RH WIND       PRES   REMARKS
RAPID CTY ARPT CLEAR     47  37  68 W5        30.09S
PIERRE         CLEAR     50  37  61 S5        30.04R
CUSTER         CLEAR     40  34  79 NW5       30.17S
ELLSWORTH AFB  CLEAR     46  39  76 W7        30.09R
PHILIP         CLEAR     39  35  86 W6        30.06S
PINE RIDGE     CLEAR     37  34  89 E3        30.09F
SPEARFISH      HAZE      43  37  81 SW5       30.09S VSB 3/4
WINNER         FAIR      51  36  56 W6        30.06R
$$

SDZ004>011-016>023-039-040-200700-
NORTHEAST SOUTH DAKOTA

CITY           SKY/WX    TMP DP  RH WIND       PRES   REMARKS
ABERDEEN       CLEAR     42  35  76 CALM      30.01R
WATERTOWN      CLEAR     42  37  82 CALM      29.99R
SISSETON         N/A     48  37  65 NW7       29.95S
$$

SDZ017-020-022-023-036>040-048>070-200700-
SOUTHEAST SOUTH DAKOTA

CITY           SKY/WX    TMP DP  RH WIND       PRES   REMARKS
SIOUX FALLS    CLEAR     46  38  73 CALM      29.99R
HURON          CLEAR     39  33  79 NW5       30.02R
CHAMBERLAIN    CLEAR     46  36  68 CALM      30.04R
MITCHELL       CLEAR     47  38  71 NW8       30.02R
YANKTON        CLEAR     48  39  71 NW12      29.99R
$$

ABBREVIATIONS USED IN REMARKS
   TC - TEMPERATURE IN CELSIUS
  WCI - WIND CHILL INDEX
   HX - HEAT INDEX
  VSB - VISIBILITY



USA.gov is the U.S. government's official web portal to all federal, state and local government web resources and services.